[[{"header":{"parameterUnit":"m.s-1","parameterCategory":1,"la1":30.2991,"la2":30.254,"lo1":-89.0895,"lo2":-89.0444,"dy":0.0017,"dx":0.0017,"nx":28,"ny":28,"refTime":"2024-09-27T03:00:00:Z","depth":0,"parameterNumber":2,"parameterNumberName":"U-component_of_WINDS"},"data":[0,0,0,0,0,0,0,0,0,0,0,0,0,0,0,0,0,0,0,0,0,0,0,0,0,0,0,0,0,0,0,0,0,0,0,0,0,0,0,0,0,0,0,0,0,0,0,0,0,0,0,0,0,0,0,0,0,0,3.7285,3.7287,0,3.7471,3.7473,3.7475,3.7453,3.745,3.7447,3.7445,3.764,3.7648,3.7656,0,0,0,0,0,0,0,0,0,0,0,0,0,3.6917,3.6923,3.7285,3.7287,3.729,3.7471,3.7473,3.7476,3.7454,3.745,3.7447,3.7443,3.7638,3.7647,3.7657,0,0,0,0,0,0,0,0,0,0,0,0,0,3.7087,3.6926,3.7285,3.73,3.7304,3.747,3.7473,3.7477,3.7455,3.745,3.7446,3.7441,3.7634,3.7646,3.7658,3.7822,0,0,3.7695,3.77,0,0,0,0,0,0,0,0,3.7077,3.7101,3.7296,3.73,3.7304,3.7434,3.7415,3.7593,3.7456,3.7398,3.7444,3.7439,3.7576,3.7592,3.7637,3.7832,3.784,3.7696,3.7703,3.7708,3.7712,0,0,0,0,0,0,0,3.7066,3.7093,3.7359,3.7299,3.7304,3.73,3.7319,3.7449,3.751,3.7402,3.7401,3.7423,3.7577,3.7626,3.7642,3.7843,3.7695,3.7706,3.7714,3.7718,3.8182,3.8187,0,0,0,0,0,0,3.7049,3.7083,3.7353,3.7364,3.7177,3.731,3.7332,3.7397,3.7508,3.7521,3.7427,3.7421,3.7607,3.7628,3.7648,3.7849,3.7708,3.7719,3.7726,3.8177,3.8184,3.8189,0,0,0,0,0,0,3.7041,3.7073,3.7345,3.7223,3.7258,3.7321,3.7395,3.7403,3.7452,3.7527,3.7538,3.7465,3.7605,3.7632,3.7779,3.7855,3.7725,3.7736,3.8171,3.8179,3.8186,3.825,0,0,0,0,0,0,3.7031,3.7071,3.7132,3.7225,3.7264,3.7471,3.74,3.741,3.7472,3.7466,3.7565,3.7578,3.7603,3.7761,3.7791,3.7869,3.7745,3.8165,3.8175,3.8184,3.8241,3.8259,3.8274,0,0,0,0,0,3.7018,3.7144,3.7136,3.7168,3.7343,3.7476,3.7499,3.7524,3.7478,3.7541,3.759,3.7575,3.7842,3.7777,3.781,3.7893,3.816,3.8172,3.8183,3.8234,3.8255,3.8273,0,0,0,0,0,0,3.706,3.7156,3.7148,3.7308,3.7384,3.7472,3.7552,3.7545,3.7637,3.7629,3.7658,3.7681,3.783,3.7876,3.7802,3.8058,3.7995,3.8014,3.8022,3.8043,3.8059,3.8045,3.7755,0,0,0,0,0,3.7088,3.7186,3.7266,3.7399,3.7437,3.7488,3.7547,3.756,3.7641,3.7673,3.7732,3.7813,3.7915,3.7982,3.808,3.8248,3.827,3.8322,3.8338,3.8351,3.8367,3.846,3.8484,3.8227,3.8227,3.8227,0,0,3.7147,3.7211,3.7272,3.7409,3.7469,3.7572,3.7516,3.7627,3.7704,3.7691,3.7833,3.788,3.7971,3.813,3.8203,3.8173,3.8443,3.8365,3.8375,3.8384,3.8474,3.8499,3.852,3.8235,3.8233,3.8232,0,0,3.7306,3.7365,3.7482,3.7543,3.7635,3.7668,3.7696,3.7786,3.7816,3.7959,3.7951,3.8045,3.822,3.8286,3.8342,3.8527,3.8517,3.8559,3.8643,3.8734,3.8754,3.8772,3.8839,3.8862,3.8574,3.8575,3.8575,0,3.7368,3.7521,3.7544,3.7656,3.7717,3.7708,3.7828,3.7888,3.8007,3.8051,3.8015,3.8235,3.8297,3.8471,3.8516,3.8562,3.8596,3.8547,3.8749,3.8768,3.8785,3.8849,3.8874,3.8579,3.8578,3.8578,3.8578,0,3.7593,3.7699,3.7784,3.7897,3.7968,3.8084,3.8126,3.8195,3.8202,3.824,3.8387,3.846,3.8573,3.8615,3.8624,3.8791,3.877,3.8742,3.8679,3.8813,3.8874,3.8899,3.8585,3.8584,3.8582,3.8581,0,0,3.7784,3.7909,3.7939,3.7991,3.8092,3.8175,3.8292,3.84,3.846,3.8543,3.8642,3.8791,3.8765,3.8829,3.8846,3.8925,3.9068,3.8888,3.889,3.8919,3.9258,3.9279,3.9306,3.9062,3.9067,3.907,3.9251,0,3.7953,3.8156,3.8181,3.8362,3.8462,3.8455,3.8557,3.863,3.8669,3.8761,3.8804,3.8909,3.8867,3.8906,3.8984,3.9034,3.9137,3.9021,3.9156,3.916,3.9133,3.9338,3.936,3.9526,3.9274,3.9278,3.9281,0,3.8178,3.8265,3.8456,3.8544,3.8586,3.8677,3.8779,3.8866,3.895,3.8973,3.9045,3.9051,3.9173,3.9105,3.9275,3.9196,3.9252,3.9285,3.9293,3.9306,3.9229,3.9358,3.958,3.9605,3.9319,3.9316,3.9313,0,3.8298,3.8464,3.86,3.8645,3.875,3.8814,3.8861,3.8941,3.9005,3.9095,3.9137,3.9241,3.9298,3.9379,3.9414,3.9361,3.9582,3.9517,3.9606,3.9605,3.9652,3.9649,3.9887,3.9689,3.9689,3.9688,3.9688,0,3.8485,3.8602,3.8656,3.8739,3.8871,3.8899,3.9029,3.9074,3.9145,3.9239,3.924,3.9329,3.9369,3.9465,3.9493,3.963,3.9655,3.9678,3.9685,3.9678,3.9675,3.9716,3.9705,3.9695,3.9693,3.9692,3.9691,0,3.8641,3.8682,3.8829,3.8917,3.8941,3.9035,3.911,3.9192,3.923,3.9349,3.9378,3.9438,3.9551,3.9593,3.9731,3.975,3.9908,3.9905,3.9879,3.988,3.9967,3.9958,4.024,4.0278,4.0054,4.0056,4.0058,0,3.8758,3.8847,3.8944,3.9006,3.9054,3.9154,3.9219,3.9251,3.9319,3.9422,3.9492,3.9604,3.9694,3.9874,3.9932,4.0037,4.0037,4.0128,4.0053,4.0044,4.0039,4.0033,4.0043,4.0142,4.0144,4.0146,4.0148,0,3.896,3.8975,3.9068,3.9168,3.9245,3.9326,3.9405,3.9456,3.95,3.9577,3.9691,3.9761,3.9901,4.0012,4.012,4.0171,4.0168,4.0171,4.0197,4.0192,4.0173,4.0185,3.9917,4.0165,4.0163,4.0162,4.0161,4.016,3.91,3.918,3.926,3.9364,3.9426,3.9499,3.9581,3.9628,3.9723,3.9837,3.9851,3.9974,4.0057,4.0202,4.0258,4.0356,4.0332,4.0369,4.0379,4.0388,4.0394,4.0157,4.0376,4.0375,4.0375,4.0375,4.0374,0,3.9303,3.9354,3.9449,3.9558,3.964,3.9628,3.9714,3.9784,3.9891,3.9969,4.0057,4.0189,4.0297,4.0363,4.0472,4.0537,4.0539,4.0565,4.0561,4.0573,4.0409,4.0376,4.0562,4.0562,4.0562,4.0562,4.0562,4.0562,3.9418,3.9552,3.9577,3.9743,3.9794,3.9912,3.9963,4.0032,4.0093,4.0239,4.0328,4.037,4.0443,4.0557,4.0657,4.0673,4.0714,4.0742,4.0757,4.0603,4.0584,4.0566,4.0534,4.0751,4.0751,4.0913,4.0914,4.0915]},{"header":{"parameterUnit":"m.s-1","parameterCategory":1,"la1":30.2991,"la2":30.254,"lo1":-89.0895,"lo2":-89.0444,"dy":0.0017,"dx":0.0017,"nx":28,"ny":28,"refTime":"2024-09-27T03:00:00:Z","depth":0,"parameterNumber":3,"parameterNumberName":"V-component_of_WINDS"},"data":[0,0,0,0,0,0,0,0,0,0,0,0,0,0,0,0,0,0,0,0,0,0,0,0,0,0,0,0,0,0,0,0,0,0,0,0,0,0,0,0,0,0,0,0,0,0,0,0,0,0,0,0,0,0,0,0,0,0,2.8697,2.87,0,2.8956,2.8959,2.8962,2.8997,2.8995,2.8992,2.899,2.9261,2.927,2.928,0,0,0,0,0,0,0,0,0,0,0,0,0,2.8238,2.8246,2.8697,2.87,2.8703,2.8956,2.896,2.8963,2.8998,2.8995,2.8992,2.8989,2.9258,2.9269,2.9281,0,0,0,0,0,0,0,0,0,0,0,0,0,2.8461,2.8249,2.8696,2.8751,2.8759,2.8955,2.896,2.8964,2.8998,2.8995,2.8991,2.8988,2.9254,2.9268,2.9282,2.9444,0,0,2.9326,2.9332,0,0,0,0,0,0,0,0,2.8449,2.8478,2.874,2.8748,2.8756,2.8941,2.8897,2.9125,2.8999,2.8908,2.899,2.8986,2.9158,2.918,2.9237,2.9457,2.9469,2.9327,2.9336,2.9342,2.9346,0,0,0,0,0,0,0,2.8433,2.8467,2.88,2.8744,2.8754,2.8765,2.8792,2.894,2.905,2.8915,2.8918,2.8948,2.9162,2.9223,2.9243,2.9473,2.9327,2.9339,2.9348,2.9354,2.9841,2.9846,0,0,0,0,0,0,2.8407,2.8454,2.8792,2.8808,2.859,2.8776,2.8807,2.8885,2.9049,2.907,2.8951,2.8949,2.92,2.9227,2.9253,2.9456,2.9342,2.9355,2.9363,2.9837,2.9842,2.9847,0,0,0,0,0,0,2.8397,2.8436,2.8781,2.8632,2.8676,2.8788,2.8876,2.8892,2.8954,2.9076,2.9096,2.8993,2.9199,2.9233,2.9397,2.9465,2.9362,2.9375,2.9832,2.9839,2.9845,2.986,0,0,0,0,0,0,2.8383,2.8433,2.8494,2.8633,2.8684,2.8919,2.888,2.89,2.8977,2.8977,2.9121,2.9141,2.9198,2.9375,2.9411,2.9483,2.9386,2.9826,2.9835,2.9843,2.9854,2.9867,2.9877,0,0,0,0,0,2.8367,2.8489,2.8497,2.8537,2.8763,2.8922,2.8952,2.9014,2.8983,2.9047,2.9125,2.9137,2.9451,2.9392,2.9432,2.951,2.9822,2.9832,2.9842,2.9849,2.9864,2.9877,0,0,0,0,0,0,2.8357,2.8508,2.8519,2.8689,2.8792,2.8928,2.901,2.9028,2.9144,2.9139,2.9212,2.9244,2.9405,2.9474,2.9404,2.9676,2.9634,2.9653,2.9626,2.9641,2.9653,2.9634,2.9398,0,0,0,0,0,2.8374,2.8489,2.8615,2.8753,2.8805,2.8898,2.897,2.9008,2.912,2.9164,2.9255,2.9364,2.9488,2.9568,2.9688,2.9863,2.9897,2.9937,2.9948,2.9957,2.9973,3.0074,3.0094,2.988,2.9879,2.9879,0,0,2.8411,2.8508,2.8577,2.8754,2.8839,2.8959,2.8935,2.9062,2.9153,2.9184,2.9345,2.9415,2.9541,2.9712,2.9792,2.9774,3.004,2.997,2.9976,2.9988,3.0086,3.0106,3.0124,2.9886,2.9885,2.9884,0,0,2.8541,2.8625,2.875,2.8835,2.8963,2.9025,2.9055,2.9188,2.9236,2.9397,2.9424,2.9533,2.9744,2.9834,2.9907,3.0071,3.0087,3.0109,3.017,3.0267,3.0284,3.0299,3.0361,3.0381,3.0124,3.0124,3.0124,0,2.8572,2.8752,2.8812,2.8939,2.9018,2.9049,2.9178,2.9259,2.942,2.9475,2.9452,2.9718,2.9806,2.9999,3.0039,3.0096,3.0135,3.0094,3.0276,3.0292,3.0307,3.0367,3.0389,3.0126,3.0125,3.0125,3.0125,0,2.8785,2.8909,2.8995,2.9149,2.9237,2.9364,2.9446,2.9528,2.9558,2.9623,2.9788,2.9894,3.0037,3.0086,3.0117,3.0285,3.027,3.026,3.0221,3.0329,3.0386,3.0409,3.0128,3.0128,3.0127,3.0127,0,0,2.8917,2.9102,2.9133,2.9204,2.9348,2.9447,2.9576,2.9715,2.9785,2.9895,3.0007,3.0185,3.0178,3.0261,3.0303,3.0388,3.0515,3.0369,3.0373,3.0395,3.0708,3.0716,3.0741,3.0525,3.0529,3.0533,3.0699,0,2.9066,2.9295,2.9354,2.9551,2.9668,2.97,2.9813,2.9915,2.9979,3.0089,3.016,3.0286,3.0265,3.0316,3.0401,3.0481,3.0579,3.0469,3.0633,3.0638,3.0603,3.0771,3.078,3.0931,3.0721,3.0725,3.0728,0,2.927,2.9384,2.9592,2.9721,2.9773,2.9873,3.0006,3.011,3.0227,3.0268,3.036,3.0394,3.0533,3.0483,3.0677,3.0601,3.0671,3.0721,3.0728,3.0748,3.0691,3.0798,3.0981,3.1004,3.0763,3.076,3.0758,0,2.9349,2.9554,2.9705,2.9765,2.9919,2.999,3.0058,3.017,3.0251,3.0367,3.042,3.0552,3.0624,3.0726,3.0796,3.0753,3.0985,3.0941,3.1026,3.1024,3.1075,3.1072,3.1274,3.1116,3.1115,3.1115,3.1114,0,2.951,2.9637,2.9743,2.9836,2.998,3.0046,3.0188,3.0257,3.0357,3.0467,3.0502,3.0604,3.0689,3.0803,3.0859,3.1012,3.1044,3.1083,3.1097,3.1082,3.1077,3.1131,3.1123,3.1121,3.1119,3.1118,3.1117,0,2.9623,2.9699,2.9867,2.9999,3.0035,3.0136,3.025,3.0344,3.0408,3.0546,3.0582,3.0684,3.0821,3.09,3.1072,3.111,3.1281,3.1289,3.1242,3.1248,3.133,3.1322,3.1577,3.1615,3.1427,3.1429,3.143,0,2.9723,2.9821,2.9963,3.0038,3.0107,3.0227,3.0309,3.0378,3.0463,3.0604,3.0681,3.0819,3.0934,3.1151,3.1242,3.1375,3.1388,3.1468,3.1409,3.1391,3.1393,3.1387,3.1399,3.1479,3.1481,3.1482,3.1483,0,2.9892,2.9924,3.0039,3.0169,3.0265,3.0371,3.0475,3.0535,3.0623,3.0716,3.0855,3.0944,3.112,3.1258,3.1399,3.1471,3.1494,3.1501,3.1528,3.1515,3.1485,3.1505,3.1273,3.1495,3.1494,3.1493,3.1492,3.1492,3.0003,3.0093,3.0207,3.0335,3.0421,3.0519,3.0613,3.0689,3.0806,3.0953,3.0988,3.1135,3.1252,3.1442,3.1518,3.1637,3.1623,3.1662,3.1672,3.1681,3.1685,3.1463,3.1662,3.1662,3.1662,3.1661,3.1661,0,3.0177,3.0251,3.0368,3.0514,3.0615,3.0624,3.0741,3.0826,3.0954,3.106,3.1172,3.1333,3.1468,3.1569,3.1707,3.1783,3.1796,3.1817,3.1814,3.1831,3.1688,3.1652,3.1804,3.1803,3.1803,3.1803,3.1803,3.1803,3.0279,3.0431,3.0478,3.0674,3.0749,3.0893,3.0959,3.105,3.1135,3.1313,3.1424,3.1488,3.1594,3.174,3.1865,3.1891,3.1942,3.1961,3.199,3.1856,3.184,3.1826,3.1792,3.1971,3.1971,3.2123,3.2125,3.2126]}]]